Location: ??????????
(54.7560°N, 39.1389°E)
Time: 02:19:40
(UTC+00:00)

Resurs 1-4 Rocket - Pass Details

Date: 19 May 2025
Orbit: 797 x 813 km, 98.8° (Epoch: 13 June)

Event Time Altitude Azimuth Distance (km) Brightness Sun altitude
Rises 23:13:12 0° 20° (NNE) 3,324 7.4 -11.4°
Reaches altitude 10° 23:15:41 10° 27° (NNE) 2,387 6.2 -11.3°
Maximum altitude 23:20:39 40° 97° (E) 1,159 3.1 -10.9°
Drops below altitude 10° 23:25:34 10° 167° (SSE) 2,367 4.1 -10.6°
Enters shadow 23:26:29 - 171° (S) 2,710 4.4 -10.5°
